This demonstration page uses our WeatherBlox Daily Observations layout. Learn more.

Left ArrowRight Arrow

39.51506, -84.39828

Hourly Observations for April 3, 2020

Temp ( °F °C ) Dew Point ( °F °C ) Humidity (%) Winds ( mph kmh ) Pressure ( in mb ) Visibility ( mi km ) Precip ( " mm )
12:15 am 00:15 Clear 40 4.6 38 3.1 90 90 Calm 30.13 1020 10 16.0934 0 0
12:35 am 00:35 Clear 39 4.1 37 2.8 91 91 Calm 30.14 1021 10 16.0934 0 0
12:55 am 00:55 Clear 39 4 37 2.8 92 92 Calm 30.14 1021 10 16.0934 0 0
1:15 am 01:15 Clear 39 4 37 2.5 90 90 N 3 6 30.14 1021 10 16.0934 0 0
1:35 am 01:35 Clear 39 3.7 37 2.7 93 93 Calm 30.15 1021 10 16.0934 0 0
1:55 am 01:55 Clear 38 3.4 37 2.5 94 94 Calm 30.15 1021 10 16.0934 0 0
2:15 am 02:15 Clear 38 3.1 36 2.4 95 95 Calm 30.14 1021 10 16.0934 0 0
2:35 am 02:35 Clear 37 3 36 2.4 96 96 Calm 30.14 1021 10 16.0934 0 0
2:55 am 02:55 Clear 37 2.7 36 2.3 97 97 Calm 30.14 1021 10 16.0934 0 0
3:15 am 03:15 Clear 36 2.4 36 2.1 98 98 Calm 30.14 1021 10 16.0934 0 0
3:35 am 03:35 Clear 37 2.5 36 2.1 97 97 Calm 30.14 1021 10 16.0934 0 0
3:55 am 03:55 Clear 36 2.2 35 1.7 97 97 Calm 30.14 1021 10 16.0934 0 0
4:15 am 04:15 Clear 36 2 35 1.6 97 97 Calm 30.14 1021 10 16.0934 0 0
4:35 am 04:35 Clear 35 1.6 34 1.2 97 97 N 3 6 30.12 1020 10 16.0934 0 0
4:55 am 04:55 Clear 35 1.8 35 1.6 99 99 Calm 30.12 1020 10 16.0934 0 0
5:15 am 05:15 Clear 35 1.4 34 1.2 99 99 Calm 30.12 1020 10 16.0934 0 0
5:35 am 05:35 Clear 35 1.5 34 1.3 99 99 Calm 30.12 1020 10 16.0934 0 0
5:55 am 05:55 Clear 35 1.8 35 1.6 99 99 Calm 30.11 1020 10 16.0934 0 0
6:15 am 06:15 Clear 35 1.6 34 1.2 97 97 Calm 30.12 1020 10 16.0934 0 0
6:35 am 06:35 Clear 35 1.7 35 1.4 98 98 Calm 30.12 1020 10 16.0934 0 0
6:55 am 06:55 Clear 36 2.2 35 1.8 97 97 Calm 30.14 1021 10 16.0934 0 0
7:15 am 07:15 Clear 35 1.6 35 1.4 99 99 Calm 30.15 1021 7 11.26538 0 0
7:35 am 07:35 Sunny with Mist and Fog 35 1.9 35 1.5 97 97 Calm 30.16 1021 3.5 5.63269 0 0
7:55 am 07:55 Sunny 35 1.6 35 1.4 99 99 Calm 30.17 1022 10 16.0934 0 0
8:15 am 08:15 Sunny 36 2.1 35 1.8 98 98 Calm 30.17 1022 10 16.0934 0 0
8:35 am 08:35 Sunny 39 3.7 38 3.3 97 97 Calm 30.17 1022 10 16.0934 0 0
8:55 am 08:55 Sunny 43 6 40 4.3 89 89 Calm 30.16 1021 10 16.0934 0 0
9:15 am 09:15 Sunny 45 7.2 41 4.9 85 85 Calm 30.16 1021 10 16.0934 0 0
9:35 am 09:35 Sunny 48 8.7 40 4.7 76 76 S 3 6 30.14 1021 10 16.0934 0 0
9:55 am 09:55 Sunny 50 9.9 40 4.7 70 70 Calm 30.14 1021 10 16.0934 0 0
10:15 am 10:15 Sunny 52 11.3 42 5.8 69 69 S 3 6 30.14 1021 10 16.0934 0 0
10:35 am 10:35 Sunny 54 12.3 43 6.1 66 66 S 3 6 30.13 1020 10 16.0934 0 0
10:55 am 10:55 Sunny 55 12.5 43 5.9 64 64 SSW 5 7 30.13 1020 10 16.0934 0 0
11:15 am 11:15 Sunny 57 13.9 42 5.7 58 58 S 5 7 30.13 1020 10 16.0934 0 0
11:35 am 11:35 Sunny 60 15.3 41 5 50 50 SSE 5 7 30.12 1020 10 16.0934 0 0
11:55 am 11:55 Sunny 60 15.7 39 3.9 46 46 SE 3 6 30.11 1020 10 16.0934 0 0
12:15 pm 12:15 Sunny 61 16 41 4.8 48 48 S 6 9 30.11 1020 10 16.0934 0 0
12:35 pm 12:35 Sunny 61 16.3 38 3.3 42 42 Calm 30.1 1019 10 16.0934 0 0
12:55 pm 12:55 Sunny 62 16.9 39 3.9 42 42 SW 5 7 30.09 1019 10 16.0934 0 0
1:15 pm 13:15 Sunny 63 17.3 38 3.5 40 40 SSE 3 6 30.08 1019 10 16.0934 0 0
1:35 pm 13:35 Sunny 64 17.7 38 3.2 38 38 SSE 6 9 30.07 1018 10 16.0934 0 0
1:55 pm 13:55 Sunny 65 18.6 36 2.3 34 34 N 6 9 30.06 1018 7 11.26538 0 0
2:15 pm 14:15 Partly Cloudy 65 18.3 36 2.4 35 35 E 3 6 30.06 1018 10 16.0934 0 0
2:35 pm 14:35 Sunny 64 18 37 2.7 36 36 ENE 6 9 30.05 1018 10 16.0934 0 0
2:55 pm 14:55 Sunny 65 18.2 37 3 36 36 Calm 30.05 1018 10 16.0934 0 0
3:15 pm 15:15 Sunny 66 19 37 2.7 34 34 Calm 30.04 1017 10 16.0934 0 0
3:35 pm 15:35 Sunny 66 19 35 1.9 32 32 N 3 6 30.04 1017 10 16.0934 0 0
3:55 pm 15:55 Sunny 66 19 36 2.3 33 33 Calm 30.03 1017 10 16.0934 0 0
4:15 pm 16:15 Sunny 67 19.2 37 2.5 33 33 Calm 30.02 1016 10 16.0934 0 0
4:55 pm 16:55 Sunny 68 19.8 37 2.9 33 33 ENE 6 9 30.01 1016 10 16.0934 0 0
5:15 pm 17:15 Sunny 68 20 39 4 35 35 WSW 5 7 30 1016 10 16.0934 0 0
5:35 pm 17:35 Sunny 68 20 39 3.9 35 35 NNW 5 7 30 1016 10 16.0934 0 0
5:55 pm 17:55 Sunny 67 19.7 38 3.5 34 34 Calm 30 1016 10 16.0934 0 0
6:15 pm 18:15 Sunny 68 19.8 39 3.9 35 35 NNW 7 11 30 1016 10 16.0934 0 0
6:35 pm 18:35 Sunny 67 19.5 38 3.6 35 35 NE 7 11 30 1016 10 16.0934 0 0
6:55 pm 18:55 Sunny 67 19.3 39 4 37 37 N 3 6 30 1016 10 16.0934 0 0
7:15 pm 19:15 Partly Cloudy 65 18.2 40 4.2 40 40 NNE 5 7 30.01 1016 10 16.0934 0 0
7:35 pm 19:35 Mostly Cloudy 63 17.4 39 4.1 41 41 N 3 6 30.01 1016 10 16.0934 0 0
7:55 pm 19:55 Sunny 64 17.5 39 3.8 40 40 N 3 6 30 1016 10 16.0934 0 0
8:15 pm 20:15 Partly Cloudy 60 15.7 42 5.3 50 50 Calm 30 1016 10 16.0934 0 0
8:35 pm 20:35 Clear 56 13.2 45 7.3 68 68 Calm 30.02 1017 10 16.0934 0 0
8:55 pm 20:55 Clear 54 12.1 44 6.6 69 69 Calm 30.02 1017 10 16.0934 0 0
9:15 pm 21:15 Clear 53 11.7 43 6.2 69 69 Calm 30.03 1017 10 16.0934 0 0
9:35 pm 21:35 Clear 53 11.4 44 6.8 74 74 Calm 30.04 1017 10 16.0934 0 0
9:55 pm 21:55 Clear 52 11.2 46 7.5 78 78 Calm 30.04 1017 10 16.0934 0 0
10:15 pm 22:15 Clear 51 10.5 42 5.8 73 73 Calm 30.04 1017 7 11.26538 0 0
10:35 pm 22:35 Partly Cloudy 50 10 43 6.2 77 77 Calm 30.04 1017 10 16.0934 0 0
10:55 pm 22:55 Mostly Cloudy 50 10.1 43 6 76 76 NNE 3 6 30.04 1017 10 16.0934 0 0
11:15 pm 23:15 Partly Cloudy 48 8.8 43 6.2 84 84 Calm 30.05 1018 10 16.0934 0 0
11:35 pm 23:35 Clear 48 8.9 44 6.7 86 86 Calm 30.05 1018 10 16.0934 0 0
11:55 pm 23:55 Clear 46 8 43 6 87 87 Calm 30.05 1018 10 16.0934 0 0

Powered by AerisWeather